This is the latest recevied weather packets stored in our database for station/object JE0GNV-13. If no packets are shown the sender has not sent any weather packets the latest 10 day(s).
| Time | Temp. | Humidity | Pressure | Rain* | Wind** | Luminosity | Snow |
|---|---|---|---|---|---|---|---|
| 1777863001 | 20° C | 47% | 999.7 hPa | 0 mm | - | - | - |
| 1777862401 | 20° C | 49% | 999.7 hPa | 0 mm | - | - | - |
| 1777861801 | 20.56° C | 50% | 999.8 hPa | 0 mm | - | - | - |
| 1777861200 | 20° C | 54% | 1000 hPa | 0 mm | - | - | - |
| 1777860601 | 19.44° C | 54% | 1000 hPa | 0 mm | - | - | - |
| 1777860000 | 18.89° C | 56% | 1000.4 hPa | 0 mm | - | - | - |
| 1777859401 | 18.33° C | 62% | 1000.4 hPa | 0 mm | - | - | - |
| 1777858800 | 17.78° C | 62% | 1000.4 hPa | 0 mm | - | - | - |
| 1777858201 | 17.22° C | 65% | 1000.7 hPa | 0 mm | - | - | - |
| 1777857600 | 17.22° C | 67% | 1000.7 hPa | 0 mm | - | - | - |
| 1777857001 | 17.22° C | 70% | 1000.7 hPa | 0 mm | - | - | - |
| 1777856401 | 16.67° C | 69% | 1000.6 hPa | 0 mm | - | - | - |
| 1777855801 | 16.67° C | 71% | 1000.5 hPa | 0 mm | - | - | - |
| 1777855201 | 16.67° C | 74% | 1000.5 hPa | 0 mm | - | - | - |
| 1777854600 | 16.11° C | 77% | 1000.6 hPa | 0 mm | - | - | - |
| 1777854001 | 16.11° C | 78% | 1000.6 hPa | 0 mm | - | - | - |
| 1777853400 | 16.11° C | 79% | 1000.6 hPa | 0 mm | - | - | - |
| 1777852801 | 16.11° C | 80% | 1000.6 hPa | 0 mm | - | - | - |
| 1777852201 | 16.11° C | 81% | 1000.5 hPa | 0 mm | - | - | - |
| 1777851601 | 16.11° C | 81% | 1000.5 hPa | 0 mm | - | - | - |
| 1777851001 | 16.11° C | 85% | 1000.5 hPa | 0 mm | - | - | - |
| 1777850400 | 16.11° C | 85% | 1000.3 hPa | 0 mm | - | - | - |
| 1777849800 | 16.11° C | 86% | 1000.2 hPa | 0 mm | - | - | - |
| 1777849201 | 16.11° C | 87% | 999.7 hPa | 0 mm | - | - | - |
| 1777848601 | 16.11° C | 93% | 999.5 hPa | 0 mm | - | - | - |
* Rain latest hour (hover to see other rain measurements)
** Current wind speed in m/s (hover to see current wind gust speed)